Location: Unspecified
(47.8330°N, 0.0000°E)
Time: 07:26:15
(UTC+00:00)

OTV 5 (USA 277) - Visible Passes

Search period start: 16 October 2019 00:00
Search period end: 26 October 2019 00:00
Orbit: 310 x 324 km, 54.5° (Epoch: 08 October)

Date Brightness Start Highest point End Pass type
(mag) Time Alt. Az. Time Alt. Az. Time Alt. Az.
16 Oct ? 04:07:19 21° NE 04:07:19 21° NE 04:08:52 10° ENE visible
16 Oct ? 05:38:21 10° WNW 05:41:06 82° SSW 05:43:50 10° SE visible
17 Oct ? 04:21:38 33° NE 04:21:38 33° NE 04:23:50 10° E visible
18 Oct ? 04:36:01 66° NE 04:36:01 66° NE 04:38:39 10° ESE visible
19 Oct ? 04:50:31 52° SSW 04:50:31 52° SSW 04:53:08 10° SE visible
20 Oct ? 05:05:08 22° SW 05:05:08 22° SW 05:07:05 10° S visible
